Tracking 30696 objects as of 16-Jun-2025
HD Live streaming from Space Station
objects crossing your sky now

STARLINK-5580

Track STARLINK-5580 now!
10-day predictions
STARLINK-5580 is classified as:


NORAD ID: 55748
Int'l Code: 2023-028H
Perigee: 577.2 km
Apogee: 581.4 km
Inclination: 70.0 °
Period: 96.1 minutes
Semi major axis: 6950 km
RCS: Unknown
Launch date: March 3, 2023
Source: United States (US)
Launch site: AIR FORCE WESTERN TEST RANGE (AFWTR)
Your satellite tracking list
Your tracking list is empty




NASA's NSSDC Master Catalog

Two Line Element Set (TLE):
1 55748U 23028H   25166.47950249 -.00003372  00000-0 -27511-3 0  9990
2 55748  69.9997 198.2253 0003006 268.2140  91.8674 14.98305558126015
Source of the keplerian elements: AFSPC